Find Starlink 32251

NORAD ID: 60940 Int'l Des: 2024-155 Owner: SPXS Country: US Constellation: starlink operational
LEOCIRCULAR

当前视图

正在加载3D地球...

About Starlink 32251

Starlink 32251 (NORAD 60940) is a starlink constellation satellite (v2 mini) launched Aug 31, 2024 by SPXS of US. It operates in LEO, CIRCULAR orbit with a mass of 730.00 kg.

关于 Starlink 32251

正在加载描述...

即将过境

Passes for default location (London). Set your location on the main map for personalized predictions.

高度历史

Loading altitude history...

两行轨道根数

1 60940U 24155S 26170.88754598 .00000971 00000-0 39868-4 0 9991
2 60940 53.1618 14.5553 0001389 119.7230 240.3911 15.34394817101997
Epoch: Jun 19, 2026 • Age: 63 hours

当前状态

高度 467.3 km
速度 7.64 km/s
星下点 48.76°N, 28.75°E
发射日期 Aug 31, 2024
运行时间 1.8 years
类型 internet

技术详情

分类 Payload
质量 730.00 kg
干质量 700.00 kg
总质量 730.00 kg
长度 0.30 m
直径 4.10 m
跨度 29.00 m
形状 Box + pan
制造商 SPXS
平台类型 Starlink V2M
阶段状态 In Orbit
所有者/国家 SPXS/US

Most Searched